QPF
0.00 0.00 0.00 0.00 0.00 0.00 0.00 0.00 0.00 0.00 0.00 0.00 0.00 0.00 0.00 0.00 0.00 0.03 0.01 0.00 0.00 0.00 0.00 0.01 0.02 0.02 0.03 0.03 0.02 0.02 0.02 0.01 0.01 0.01 0.00 0.00 0.00 0.00 0.01 0.01 0.01 0.01 0.02 0.02 0.02 0.02 0.02 0.02 0.01
0.00 0.00 0.00 0.00 0.00 0.00 0.00 0.00 0.00 0.00 0.00 0.00 0.00 0.00 0.00 0.01 0.00 0.00 0.00 0.00 0.00 0.00 0.00 0.00 0.01 0.02 0.02 0.02 0.01 0.01 0.01 0.01 0.01 0.01 0.00 0.00 0.00 0.00 0.01 0.01 0.01 0.01 0.01 0.01 0.02 0.01 0.01 0.01 0.02
0.00 0.00 0.00 0.00 0.00 0.00 0.00 0.00 0.00 0.01 0.01 0.01 0.00 0.00 0.00 0.00 0.00 0.00 0.00 0.00 0.00 0.01 0.01 0.01 0.01 0.02 0.01 0.01 0.01 0.01 0.01 0.01 0.01 0.01 0.01 0.01 0.01 0.01 0.01 0.02 0.02 0.02 0.01 0.02 0.02 0.02 0.01 0.01 0.02
0.00 0.00 0.00 0.00 0.00 0.00 0.00 0.00 0.00 0.00 0.00 0.00 0.00 0.00 0.00 0.00 0.00 0.00 0.00 0.01 0.01 0.01 0.02 0.01 0.01 0.01 0.01 0.01 0.01 0.00 0.01 0.01 0.01 0.01 0.01 0.01 0.01 0.02 0.03 0.03 0.02 0.02 0.02 0.03 0.03 0.03 0.02 0.01 0.02
0.00 0.00 0.00 0.00 0.00 0.00 0.00 0.00 0.00 0.00 0.00 0.00 0.00 0.00 0.00 0.00 0.00 0.00 0.01 0.01 0.01 0.01 0.02 0.02 0.01 0.01 0.01 0.01 0.01 0.01 0.01 0.01 0.01 0.01 0.02 0.02 0.01 0.02 0.03 0.03 0.03 0.02 0.03 0.02 0.03 0.05 0.03 0.04 0.04
0.00 0.00 0.00 0.00 0.00 0.00 0.00 0.00 0.00 0.00 0.00 0.00 0.00 0.00 0.00 0.00 0.00 0.00 0.01 0.01 0.01 0.00 0.02 0.03 0.02 0.02 0.01 0.02 0.03 0.02 0.02 0.02 0.02 0.02 0.02 0.02 0.02 0.02 0.02 0.03 0.03 0.02 0.02 0.02 0.03 0.04 0.04 0.05 0.07
0.00 0.00 0.00 0.00 0.00 0.00 0.00 0.00 0.00 0.00 0.00 0.00 0.00 0.00 0.00 0.00 0.00 0.00 0.01 0.01 0.01 0.00 0.00 0.02 0.02 0.02 0.02 0.01 0.01 0.01 0.02 0.02 0.03 0.03 0.02 0.01 0.02 0.02 0.02 0.03 0.04 0.02 0.02 0.02 0.04 0.04 0.04 0.04 0.05
0.00 0.00 0.00 0.00 0.00 0.00 0.00 0.00 0.00 0.00 0.00 0.00 0.00 0.00 0.00 0.00 0.00 0.01 0.01 0.01 0.01 0.01 0.00 0.01 0.02 0.02 0.02 0.01 0.01 0.01 0.01 0.03 0.02 0.02 0.02 0.02 0.02 0.02 0.02 0.02 0.04 0.03 0.02 0.03 0.04 0.03 0.03 0.04 0.06
0.00 0.00 0.00 0.00 0.00 0.00 0.00 0.00 0.00 0.00 0.00 0.00 0.00 0.00 0.00 0.00 0.00 0.01 0.02 0.03 0.01 0.01 0.02 0.02 0.02 0.02 0.02 0.01 0.01 0.02 0.02 0.02 0.02 0.03 0.02 0.03 0.04 0.04 0.03 0.01 0.02 0.03 0.03 0.03 0.05 0.03 0.03 0.03 0.04
0.00 0.00 0.00 0.00 0.00 0.00 0.00 0.00 0.00 0.00 0.00 0.00 0.00 0.00 0.00 0.00 0.00 0.01 0.01 0.01 0.01 0.01 0.02 0.03 0.03 0.02 0.01 0.01 0.02 0.03 0.04 0.04 0.04 0.04 0.04 0.04 0.04 0.05 0.03 0.02 0.03 0.03 0.03 0.03 0.04 0.04 0.02 0.01 0.03
0.00 0.00 0.00 0.00 0.00 0.00 0.00 0.00 0.00 0.00 0.00 0.00 0.00 0.00 0.00 0.00 0.00 0.01 0.02 0.01 0.01 0.01 0.01 0.02 0.02 0.03 0.02 0.02 0.02 0.03 0.05 0.06 0.05 0.04 0.03 0.03 0.03 0.04 0.04 0.03 0.04 0.04 0.03 0.03 0.02 0.01 0.01 0.02 0.05
0.00 0.00 0.00 0.00 0.00 0.00 0.00 0.00 0.00 0.00 0.00 0.00 0.00 0.00 0.00 0.01 0.01 0.01 0.01 0.01 0.01 0.01 0.02 0.02 0.02 0.03 0.04 0.03 0.03 0.03 0.04 0.04 0.04 0.03 0.02 0.02 0.02 0.04 0.04 0.04 0.04 0.04 0.04 0.04 0.03 0.03 0.01 0.01 0.02
0.00 0.00 0.00 0.00 0.00 0.00 0.00 0.00 0.00 0.00 0.00 0.00 0.00 0.00 0.01 0.01 0.02 0.01 0.01 0.00 0.00 0.01 0.02 0.03 0.03 0.03 0.03 0.05 0.04 0.04 0.04 0.03 0.03 0.02 0.02 0.01 0.02 0.04 0.04 0.04 0.03 0.02 0.02 0.02 0.02 0.01 0.02 0.02 0.03
0.00 0.00 0.00 0.00 0.00 0.00 0.00 0.00 0.00 0.00 0.00 0.00 0.00 0.00 0.01 0.00 0.01 0.01 0.00 0.00 0.01 0.01 0.03 0.04 0.04 0.05 0.05 0.05 0.05 0.05 0.05 0.04 0.04 0.03 0.02 0.02 0.02 0.04 0.04 0.03 0.02 0.01 0.01 0.01 0.01 0.01 0.02 0.03 0.04
0.00 0.00 0.00 0.00 0.00 0.00 0.00 0.00 0.00 0.00 0.00 0.00 0.00 0.00 0.00 0.00 0.00 0.00 0.00 0.00 0.01 0.03 0.04 0.07 0.09 0.07 0.09 0.08 0.08 0.08 0.08 0.06 0.05 0.05 0.05 0.03 0.03 0.03 0.03 0.03 0.02 0.02 0.01 0.01 0.01 0.02 0.02 0.04 0.04
0.00 0.00 0.00 0.00 0.00 0.00 0.00 0.00 0.00 0.00 0.00 0.00 0.00 0.00 0.00 0.00 0.00 0.00 0.01 0.02 0.02 0.03 0.05 0.08 0.06 0.07 0.10 0.11 0.12 0.11 0.10 0.09 0.08 0.07 0.06 0.05 0.04 0.03 0.03 0.03 0.02 0.02 0.01 0.01 0.02 0.03 0.05 0.06 0.07
0.00 0.00 0.00 0.00 0.00 0.00 0.00 0.00 0.00 0.00 0.00 0.00 0.00 0.00 0.00 0.00 0.00 0.01 0.02 0.02 0.02 0.04 0.05 0.07 0.08 0.08 0.09 0.10 0.11 0.12 0.13 0.13 0.09 0.07 0.07 0.07 0.06 0.04 0.03 0.04 0.04 0.02 0.02 0.02 0.02 0.04 0.06 0.07 0.08
0.00 0.00 0.00 0.00 0.00 0.00 0.00 0.00 0.00 0.00 0.00 0.00 0.00 0.00 0.00 0.00 0.01 0.01 0.02 0.03 0.03 0.05 0.06 0.07 0.09 0.11 0.11 0.11 0.11 0.11 0.12 0.11 0.09 0.08 0.09 0.08 0.07 0.06 0.05 0.04 0.04 0.03 0.03 0.05 0.05 0.06 0.08 0.07 0.08
0.00 0.00 0.00 0.00 0.00 0.00 0.00 0.00 0.00 0.00 0.00 0.00 0.00 0.00 0.00 0.00 0.01 0.01 0.01 0.03 0.04 0.07 0.08 0.08 0.10 0.12 0.12 0.09 0.10 0.09 0.08 0.07 0.08 0.08 0.08 0.07 0.08 0.09 0.08 0.05 0.06 0.04 0.06 0.08 0.06 0.05 0.07 0.06 0.06
0.00 0.00 0.00 0.00 0.00 0.00 0.00 0.00 0.00 0.00 0.00 0.00 0.00 0.00 0.00 0.00 0.01 0.01 0.01 0.02 0.04 0.08 0.10 0.09 0.07 0.08 0.09 0.09 0.09 0.09 0.09 0.07 0.07 0.07 0.08 0.07 0.05 0.06 0.06 0.06 0.05 0.05 0.07 0.08 0.08 0.07 0.08 0.07 0.05
0.00 0.00 0.00 0.00 0.00 0.00 0.00 0.00 0.00 0.00 0.00 0.00 0.00 0.00 0.00 0.00 0.00 0.01 0.01 0.02 0.05 0.10 0.13 0.11 0.10 0.11 0.11 0.11 0.10 0.09 0.10 0.12 0.11 0.08 0.09 0.08 0.05 0.05 0.06 0.07 0.07 0.06 0.06 0.06 0.07 0.08 0.09 0.09 0.06
0.00 0.00 0.00 0.00 0.00 0.00 0.00 0.00 0.00 0.00 0.00 0.00 0.00 0.00 0.00 0.01 0.01 0.01 0.02 0.04 0.08 0.13 0.11 0.08 0.08 0.10 0.13 0.14 0.12 0.09 0.09 0.12 0.11 0.08 0.07 0.06 0.06 0.07 0.07 0.06 0.06 0.07 0.07 0.07 0.07 0.07 0.08 0.10 0.07
0.00 0.00 0.00 0.00 0.00 0.00 0.00 0.00 0.00 0.00 0.00 0.00 0.00 0.00 0.00 0.02 0.02 0.03 0.02 0.05 0.08 0.09 0.08 0.06 0.07 0.09 0.12 0.14 0.17 0.14 0.13 0.13 0.14 0.12 0.10 0.08 0.08 0.08 0.08 0.06 0.06 0.07 0.08 0.08 0.09 0.08 0.07 0.07 0.06
0.00 0.00 0.00 0.00 0.00 0.00 0.00 0.00 0.00 0.00 0.00 0.00 0.00 0.00 0.01 0.01 0.01 0.01 0.01 0.02 0.03 0.03 0.04 0.04 0.06 0.07 0.10 0.11 0.15 0.15 0.15 0.15 0.16 0.13 0.12 0.10 0.09 0.08 0.06 0.06 0.08 0.07 0.06 0.07 0.08 0.08 0.07 0.07 0.06
0.00 0.00 0.00 0.00 0.00 0.00 0.00 0.00 0.00 0.00 0.00 0.00 0.00 0.00 0.00 0.00 0.00 0.00 0.01 0.01 0.00 0.01 0.02 0.02 0.05 0.05 0.08 0.11 0.12 0.13 0.16 0.16 0.14 0.12 0.11 0.09 0.08 0.08 0.06 0.05 0.07 0.07 0.06 0.06 0.07 0.07 0.06 0.07 0.06
0.00 0.00 0.00 0.00 0.00 0.00 0.00 0.00 0.00 0.00 0.00 0.00 0.00 0.00 0.00 0.00 0.00 0.00 0.00 0.00 0.01 0.01 0.01 0.02 0.03 0.04 0.07 0.10 0.12 0.12 0.14 0.14 0.12 0.13 0.10 0.09 0.08 0.08 0.09 0.07 0.06 0.06 0.06 0.05 0.06 0.05 0.06 0.06 0.05
0.00 0.00 0.00 0.00 0.00 0.00 0.00 0.00 0.00 0.00 0.00 0.00 0.00 0.00 0.00 0.00 0.00 0.00 0.00 0.00 0.00 0.01 0.01 0.02 0.03 0.05 0.08 0.11 0.13 0.14 0.12 0.12 0.10 0.12 0.12 0.11 0.11 0.09 0.09 0.08 0.07 0.06 0.06 0.05 0.05 0.05 0.05 0.06 0.05
0.00 0.00 0.00 0.00 0.00 0.00 0.00 0.00 0.00 0.00 0.00 0.00 0.00 0.00 0.01 0.00 0.00 0.00 0.00 0.00 0.00 0.01 0.01 0.02 0.03 0.06 0.09 0.09 0.10 0.12 0.12 0.11 0.10 0.10 0.11 0.10 0.10 0.10 0.10 0.09 0.08 0.07 0.06 0.06 0.06 0.05 0.06 0.06 0.05
0.00 0.00 0.00 0.00 0.00 0.00 0.00 0.00 0.00 0.00 0.00 0.00 0.00 0.00 0.01 0.01 0.00 0.00 0.00 0.00 0.01 0.01 0.01 0.02 0.04 0.09 0.11 0.08 0.08 0.08 0.07 0.08 0.08 0.08 0.08 0.09 0.08 0.08 0.09 0.09 0.08 0.07 0.07 0.07 0.06 0.05 0.05 0.05 0.05
0.00 0.00 0.00 0.00 0.00 0.00 0.00 0.00 0.00 0.00 0.00 0.00 0.00 0.01 0.00 0.00 0.01 0.01 0.00 0.01 0.00 0.00 0.01 0.03 0.03 0.07 0.09 0.07 0.06 0.05 0.04 0.05 0.07 0.07 0.08 0.11 0.11 0.09 0.08 0.09 0.08 0.06 0.07 0.08 0.07 0.06 0.07 0.07 0.06
MSLP
1009.31 1009.74 1010.23 1010.67 1010.97 1011.07 1010.97 1010.73 1010.41 1010.11 1009.93 1009.90 1010.00 1010.20 1010.43 1010.60 1010.67 1010.64 1010.56 1010.49 1010.53 1010.74 1011.15 1011.74 1012.43 1013.13 1013.73 1014.16 1014.39 1014.44 1014.38 1014.30 1014.29 1014.40 1014.65 1015.00 1015.39 1015.76 1016.04 1016.19 1016.23 1016.20 1016.15 1016.13 1016.19 1016.33 1016.55 1016.79 1017.01
1009.32 1009.82 1010.34 1010.78 1011.05 1011.09 1010.92 1010.58 1010.18 1009.81 1009.55 1009.47 1009.54 1009.72 1009.94 1010.13 1010.22 1010.23 1010.19 1010.17 1010.27 1010.53 1011.00 1011.64 1012.40 1013.16 1013.83 1014.33 1014.62 1014.73 1014.71 1014.66 1014.65 1014.74 1014.95 1015.25 1015.59 1015.90 1016.12 1016.24 1016.27 1016.24 1016.21 1016.23 1016.34 1016.53 1016.78 1017.04 1017.28
1009.48 1010.01 1010.53 1010.93 1011.13 1011.10 1010.83 1010.41 1009.92 1009.49 1009.18 1009.06 1009.12 1009.30 1009.53 1009.74 1009.87 1009.91 1009.91 1009.93 1010.06 1010.36 1010.85 1011.53 1012.32 1013.13 1013.85 1014.41 1014.78 1014.96 1015.02 1015.01 1015.03 1015.12 1015.31 1015.56 1015.83 1016.07 1016.25 1016.33 1016.34 1016.33 1016.33 1016.39 1016.54 1016.76 1017.03 1017.30 1017.52
1009.75 1010.28 1010.75 1011.09 1011.20 1011.06 1010.70 1010.20 1009.64 1009.16 1008.83 1008.69 1008.75 1008.94 1009.20 1009.45 1009.62 1009.71 1009.75 1009.81 1009.97 1010.28 1010.79 1011.47 1012.26 1013.08 1013.84 1014.45 1014.88 1015.14 1015.26 1015.32 1015.38 1015.49 1015.66 1015.88 1016.11 1016.30 1016.44 1016.50 1016.51 1016.52 1016.55 1016.65 1016.83 1017.07 1017.34 1017.58 1017.76
1010.10 1010.58 1010.98 1011.21 1011.21 1010.96 1010.51 1009.94 1009.34 1008.83 1008.49 1008.37 1008.45 1008.67 1008.97 1009.26 1009.50 1009.65 1009.74 1009.85 1010.03 1010.36 1010.85 1011.51 1012.29 1013.09 1013.84 1014.47 1014.94 1015.25 1015.44 1015.56 1015.67 1015.81 1015.99 1016.19 1016.40 1016.57 1016.69 1016.75 1016.78 1016.81 1016.88 1017.02 1017.21 1017.45 1017.69 1017.90 1018.02
1010.45 1010.86 1011.15 1011.26 1011.13 1010.79 1010.26 1009.63 1009.01 1008.51 1008.19 1008.10 1008.21 1008.48 1008.84 1009.19 1009.49 1009.71 1009.88 1010.04 1010.26 1010.60 1011.08 1011.70 1012.43 1013.18 1013.89 1014.50 1014.97 1015.31 1015.54 1015.71 1015.87 1016.04 1016.24 1016.45 1016.65 1016.83 1016.95 1017.04 1017.10 1017.18 1017.29 1017.44 1017.65 1017.87 1018.07 1018.21 1018.27
1010.76 1011.06 1011.22 1011.20 1010.96 1010.52 1009.94 1009.29 1008.68 1008.21 1007.93 1007.88 1008.05 1008.37 1008.78 1009.20 1009.58 1009.88 1010.13 1010.36 1010.63 1010.98 1011.45 1012.02 1012.68 1013.36 1013.99 1014.54 1014.99 1015.32 1015.57 1015.76 1015.95 1016.15 1016.38 1016.61 1016.84 1017.03 1017.19 1017.31 1017.42 1017.54 1017.68 1017.85 1018.05 1018.25 1018.40 1018.48 1018.47
1010.96 1011.15 1011.18 1011.03 1010.69 1010.18 1009.58 1008.94 1008.36 1007.93 1007.71 1007.72 1007.93 1008.30 1008.77 1009.25 1009.70 1010.09 1010.42 1010.73 1011.05 1011.42 1011.88 1012.41 1012.98 1013.57 1014.12 1014.59 1014.97 1015.28 1015.51 1015.72 1015.93 1016.16 1016.42 1016.68 1016.93 1017.16 1017.35 1017.52 1017.66 1017.81 1017.98 1018.17 1018.36 1018.52 1018.63 1018.65 1018.59
1011.05 1011.12 1011.03 1010.77 1010.35 1009.81 1009.20 1008.60 1008.07 1007.70 1007.54 1007.59 1007.84 1008.25 1008.76 1009.29 1009.80 1010.26 1010.68 1011.05 1011.43 1011.83 1012.27 1012.75 1013.26 1013.76 1014.21 1014.60 1014.92 1015.18 1015.40 1015.61 1015.83 1016.09 1016.37 1016.66 1016.94 1017.19 1017.42 1017.61 1017.79 1017.96 1018.14 1018.33 1018.50 1018.64 1018.72 1018.71 1018.62
1011.04 1011.00 1010.81 1010.47 1010.00 1009.45 1008.85 1008.29 1007.82 1007.52 1007.40 1007.49 1007.76 1008.19 1008.71 1009.27 1009.82 1010.34 1010.81 1011.24 1011.67 1012.09 1012.53 1012.98 1013.42 1013.84 1014.22 1014.54 1014.80 1015.03 1015.23 1015.45 1015.69 1015.96 1016.27 1016.58 1016.88 1017.16 1017.40 1017.61 1017.79 1017.97 1018.15 1018.33 1018.50 1018.62 1018.68 1018.67 1018.58
1010.97 1010.84 1010.57 1010.17 1009.68 1009.13 1008.57 1008.05 1007.64 1007.38 1007.29 1007.39 1007.67 1008.09 1008.60 1009.16 1009.72 1010.27 1010.78 1011.26 1011.71 1012.15 1012.59 1013.02 1013.42 1013.79 1014.12 1014.39 1014.63 1014.84 1015.05 1015.27 1015.54 1015.84 1016.16 1016.49 1016.81 1017.09 1017.33 1017.53 1017.72 1017.89 1018.06 1018.22 1018.38 1018.50 1018.57 1018.57 1018.52
1010.87 1010.68 1010.36 1009.93 1009.43 1008.90 1008.38 1007.90 1007.53 1007.30 1007.22 1007.32 1007.57 1007.95 1008.42 1008.96 1009.51 1010.06 1010.58 1011.08 1011.56 1012.01 1012.45 1012.87 1013.25 1013.60 1013.90 1014.17 1014.41 1014.63 1014.86 1015.12 1015.41 1015.74 1016.09 1016.43 1016.75 1017.03 1017.26 1017.46 1017.62 1017.77 1017.92 1018.07 1018.22 1018.35 1018.45 1018.49 1018.49
1010.80 1010.57 1010.22 1009.78 1009.29 1008.78 1008.29 1007.85 1007.51 1007.28 1007.20 1007.26 1007.47 1007.80 1008.23 1008.72 1009.24 1009.77 1010.28 1010.78 1011.26 1011.72 1012.15 1012.57 1012.95 1013.30 1013.62 1013.90 1014.17 1014.43 1014.70 1015.01 1015.34 1015.70 1016.07 1016.42 1016.75 1017.02 1017.24 1017.41 1017.55 1017.68 1017.81 1017.96 1018.11 1018.26 1018.39 1018.49 1018.56
1010.78 1010.53 1010.17 1009.74 1009.27 1008.79 1008.33 1007.92 1007.58 1007.35 1007.24 1007.26 1007.42 1007.69 1008.06 1008.50 1008.97 1009.47 1009.96 1010.44 1010.91 1011.36 1011.79 1012.21 1012.60 1012.97 1013.32 1013.64 1013.96 1014.27 1014.60 1014.95 1015.32 1015.71 1016.09 1016.46 1016.78 1017.05 1017.26 1017.41 1017.54 1017.66 1017.78 1017.93 1018.10 1018.28 1018.45 1018.61 1018.74
1010.81 1010.56 1010.22 1009.81 1009.37 1008.92 1008.48 1008.08 1007.75 1007.50 1007.36 1007.34 1007.44 1007.66 1007.97 1008.36 1008.80 1009.25 1009.71 1010.17 1010.61 1011.05 1011.47 1011.88 1012.29 1012.68 1013.07 1013.44 1013.80 1014.17 1014.54 1014.93 1015.33 1015.73 1016.13 1016.49 1016.82 1017.09 1017.30 1017.46 1017.59 1017.71 1017.84 1018.00 1018.19 1018.40 1018.61 1018.83 1019.02
1010.90 1010.65 1010.33 1009.96 1009.56 1009.15 1008.74 1008.35 1008.01 1007.74 1007.57 1007.51 1007.57 1007.74 1008.01 1008.36 1008.75 1009.17 1009.60 1010.02 1010.44 1010.84 1011.25 1011.66 1012.07 1012.49 1012.91 1013.32 1013.73 1014.13 1014.54 1014.94 1015.35 1015.75 1016.14 1016.50 1016.82 1017.09 1017.32 1017.50 1017.65 1017.80 1017.95 1018.14 1018.35 1018.59 1018.85 1019.10 1019.34
1011.01 1010.78 1010.50 1010.18 1009.83 1009.46 1009.07 1008.70 1008.36 1008.07 1007.86 1007.77 1007.79 1007.92 1008.16 1008.48 1008.85 1009.24 1009.63 1010.02 1010.40 1010.78 1011.16 1011.56 1011.97 1012.41 1012.85 1013.29 1013.73 1014.16 1014.57 1014.97 1015.36 1015.74 1016.10 1016.45 1016.76 1017.04 1017.29 1017.50 1017.69 1017.87 1018.07 1018.28 1018.52 1018.79 1019.08 1019.36 1019.63
1011.11 1010.92 1010.69 1010.43 1010.14 1009.82 1009.48 1009.11 1008.76 1008.45 1008.22 1008.08 1008.07 1008.18 1008.39 1008.68 1009.03 1009.39 1009.76 1010.11 1010.46 1010.80 1011.16 1011.54 1011.95 1012.40 1012.86 1013.32 1013.78 1014.21 1014.62 1015.00 1015.36 1015.70 1016.02 1016.33 1016.63 1016.91 1017.18 1017.43 1017.67 1017.90 1018.13 1018.38 1018.65 1018.94 1019.25 1019.55 1019.83
1011.17 1011.04 1010.88 1010.70 1010.49 1010.23 1009.91 1009.56 1009.20 1008.86 1008.58 1008.41 1008.36 1008.43 1008.62 1008.89 1009.22 1009.56 1009.90 1010.22 1010.53 1010.84 1011.17 1011.54 1011.95 1012.41 1012.89 1013.37 1013.84 1014.28 1014.68 1015.03 1015.35 1015.64 1015.91 1016.18 1016.46 1016.74 1017.02 1017.30 1017.58 1017.86 1018.13 1018.41 1018.70 1019.01 1019.32 1019.62 1019.92
1011.18 1011.12 1011.06 1010.98 1010.84 1010.64 1010.36 1010.01 1009.62 1009.24 1008.91 1008.68 1008.58 1008.61 1008.77 1009.01 1009.32 1009.64 1009.95 1010.24 1010.53 1010.81 1011.12 1011.48 1011.90 1012.36 1012.87 1013.38 1013.88 1014.34 1014.73 1015.07 1015.35 1015.59 1015.82 1016.05 1016.29 1016.56 1016.85 1017.15 1017.45 1017.76 1018.07 1018.37 1018.67 1018.97 1019.28 1019.58 1019.87
1011.13 1011.17 1011.21 1011.23 1011.18 1011.04 1010.78 1010.42 1009.99 1009.54 1009.14 1008.85 1008.68 1008.66 1008.77 1008.98 1009.26 1009.56 1009.85 1010.12 1010.38 1010.65 1010.94 1011.30 1011.72 1012.22 1012.76 1013.31 1013.85 1014.35 1014.77 1015.11 1015.37 1015.59 1015.78 1015.97 1016.18 1016.42 1016.70 1017.00 1017.32 1017.64 1017.96 1018.26 1018.56 1018.85 1019.15 1019.44 1019.72
1011.00 1011.16 1011.32 1011.45 1011.48 1011.38 1011.14 1010.75 1010.27 1009.74 1009.26 1008.88 1008.63 1008.55 1008.61 1008.79 1009.04 1009.32 1009.59 1009.85 1010.09 1010.34 1010.62 1010.98 1011.42 1011.94 1012.53 1013.14 1013.74 1014.29 1014.76 1015.13 1015.41 1015.62 1015.79 1015.96 1016.14 1016.35 1016.61 1016.90 1017.21 1017.53 1017.84 1018.13 1018.42 1018.70 1018.97 1019.24 1019.52
1010.80 1011.09 1011.38 1011.61 1011.71 1011.65 1011.40 1010.98 1010.43 1009.83 1009.26 1008.78 1008.46 1008.32 1008.33 1008.48 1008.70 1008.97 1009.23 1009.47 1009.69 1009.93 1010.21 1010.57 1011.02 1011.57 1012.20 1012.86 1013.53 1014.14 1014.68 1015.10 1015.42 1015.65 1015.83 1015.98 1016.14 1016.34 1016.57 1016.83 1017.12 1017.42 1017.72 1018.00 1018.27 1018.52 1018.78 1019.03 1019.30
1010.54 1010.96 1011.36 1011.68 1011.85 1011.81 1011.55 1011.09 1010.49 1009.81 1009.16 1008.61 1008.22 1008.02 1008.00 1008.12 1008.33 1008.59 1008.84 1009.07 1009.29 1009.52 1009.78 1010.13 1010.58 1011.14 1011.80 1012.50 1013.22 1013.90 1014.49 1014.98 1015.35 1015.62 1015.82 1015.98 1016.13 1016.31 1016.52 1016.77 1017.04 1017.32 1017.60 1017.86 1018.11 1018.35 1018.59 1018.83 1019.09
1010.23 1010.76 1011.26 1011.65 1011.86 1011.84 1011.57 1011.08 1010.43 1009.70 1009.00 1008.40 1007.97 1007.74 1007.70 1007.82 1008.03 1008.29 1008.54 1008.77 1008.98 1009.19 1009.44 1009.76 1010.18 1010.73 1011.38 1012.09 1012.83 1013.54 1014.18 1014.72 1015.14 1015.45 1015.68 1015.86 1016.03 1016.21 1016.41 1016.65 1016.91 1017.18 1017.45 1017.71 1017.96 1018.19 1018.42 1018.65 1018.90
1009.88 1010.49 1011.05 1011.49 1011.73 1011.72 1011.45 1010.95 1010.29 1009.54 1008.82 1008.22 1007.79 1007.55 1007.52 1007.64 1007.86 1008.13 1008.39 1008.63 1008.83 1009.02 1009.23 1009.51 1009.89 1010.38 1010.98 1011.67 1012.38 1013.09 1013.74 1014.30 1014.75 1015.10 1015.37 1015.59 1015.78 1015.97 1016.19 1016.43 1016.70 1016.98 1017.26 1017.53 1017.78 1018.02 1018.25 1018.48 1018.72
1009.50 1010.15 1010.74 1011.20 1011.45 1011.45 1011.19 1010.71 1010.07 1009.36 1008.67 1008.10 1007.70 1007.49 1007.48 1007.62 1007.86 1008.15 1008.42 1008.65 1008.85 1009.01 1009.19 1009.41 1009.73 1010.14 1010.67 1011.27 1011.92 1012.58 1013.20 1013.75 1014.21 1014.58 1014.88 1015.13 1015.36 1015.59 1015.84 1016.11 1016.41 1016.72 1017.02 1017.32 1017.59 1017.85 1018.08 1018.31 1018.54
1009.09 1009.73 1010.32 1010.76 1011.01 1011.03 1010.81 1010.38 1009.81 1009.17 1008.56 1008.06 1007.71 1007.56 1007.58 1007.74 1008.00 1008.29 1008.57 1008.81 1008.99 1009.14 1009.28 1009.45 1009.70 1010.02 1010.44 1010.94 1011.50 1012.07 1012.63 1013.13 1013.58 1013.95 1014.27 1014.56 1014.83 1015.10 1015.40 1015.72 1016.06 1016.41 1016.76 1017.09 1017.39 1017.66 1017.91 1018.14 1018.36
1008.65 1009.25 1009.79 1010.20 1010.45 1010.48 1010.31 1009.97 1009.50 1008.97 1008.48 1008.07 1007.81 1007.71 1007.76 1007.94 1008.21 1008.50 1008.77 1009.01 1009.19 1009.32 1009.44 1009.58 1009.76 1010.01 1010.33 1010.72 1011.17 1011.64 1012.11 1012.55 1012.96 1013.32 1013.66 1013.97 1014.28 1014.61 1014.96 1015.34 1015.73 1016.12 1016.51 1016.87 1017.20 1017.49 1017.75 1017.98 1018.18
1008.19 1008.71 1009.18 1009.55 1009.78 1009.84 1009.74 1009.50 1009.16 1008.78 1008.41 1008.12 1007.93 1007.88 1007.96 1008.14 1008.38 1008.66 1008.92 1009.15 1009.33 1009.47 1009.60 1009.72 1009.87 1010.07 1010.32 1010.63 1010.98 1011.35 1011.74 1012.11 1012.48 1012.82 1013.16 1013.50 1013.85 1014.23 1014.63 1015.05 1015.48 1015.92 1016.33 1016.72 1017.06 1017.36 1017.61 1017.83 1018.01
Thickness
5821 5827 5828 5822 5813 5810 5799 5805 5813 5811 5813 5819 5819 5814 5808 5802 5795 5784 5805 5814 5808 5802 5793 5784 5781 5779 5777 5776 5775 5773 5771 5769 5768 5766 5765 5763 5762 5761 5759 5759 5758 5757 5756 5755 5754 5753 5751 5750 5748
5830 5829 5824 5820 5812 5796 5794 5809 5811 5812 5817 5822 5819 5815 5808 5802 5804 5802 5806 5808 5806 5801 5793 5785 5778 5777 5775 5774 5773 5771 5770 5768 5766 5765 5763 5762 5760 5759 5758 5757 5756 5755 5754 5753 5752 5750 5749 5747 5746
5830 5829 5821 5819 5810 5801 5799 5812 5815 5819 5824 5821 5815 5815 5808 5800 5801 5802 5807 5807 5804 5798 5792 5783 5777 5775 5773 5772 5770 5769 5768 5766 5764 5763 5762 5760 5759 5758 5757 5755 5754 5753 5752 5751 5749 5748 5746 5745 5744
5828 5824 5822 5816 5807 5811 5814 5819 5821 5819 5821 5822 5817 5807 5806 5806 5806 5808 5808 5806 5801 5795 5790 5781 5776 5773 5771 5770 5768 5767 5765 5764 5763 5761 5760 5759 5757 5756 5755 5754 5752 5751 5750 5749 5747 5745 5744 5743 5741
5828 5822 5815 5811 5810 5816 5824 5826 5825 5819 5817 5819 5817 5805 5799 5806 5812 5810 5806 5804 5798 5795 5790 5780 5774 5771 5769 5767 5766 5764 5763 5762 5761 5759 5758 5757 5755 5754 5753 5752 5750 5749 5748 5746 5745 5743 5742 5740 5739
5823 5822 5813 5807 5808 5818 5827 5830 5828 5822 5819 5819 5816 5806 5796 5805 5807 5806 5805 5802 5800 5796 5790 5779 5772 5769 5767 5765 5764 5762 5761 5759 5758 5757 5756 5755 5754 5752 5751 5750 5748 5747 5746 5744 5742 5741 5740 5739 5738
5818 5817 5813 5811 5810 5814 5823 5832 5827 5823 5818 5820 5822 5807 5798 5802 5806 5806 5803 5801 5799 5795 5789 5780 5774 5769 5766 5764 5762 5761 5759 5758 5756 5755 5754 5752 5751 5750 5749 5747 5746 5745 5744 5742 5741 5739 5738 5737 5736
5825 5819 5812 5813 5811 5814 5828 5832 5832 5827 5822 5829 5827 5809 5800 5802 5806 5805 5800 5797 5796 5793 5789 5782 5777 5772 5768 5764 5761 5759 5758 5756 5754 5753 5752 5751 5749 5748 5747 5746 5744 5743 5742 5740 5739 5738 5737 5736 5734
5823 5812 5810 5814 5814 5819 5830 5828 5832 5836 5829 5825 5826 5821 5818 5810 5805 5798 5792 5790 5789 5787 5786 5783 5779 5773 5770 5767 5762 5759 5756 5754 5753 5752 5750 5750 5751 5750 5747 5745 5742 5741 5740 5739 5737 5736 5735 5735 5734
5816 5809 5814 5822 5826 5826 5828 5828 5830 5828 5822 5817 5816 5815 5814 5807 5800 5793 5788 5785 5783 5781 5782 5782 5779 5774 5772 5769 5763 5761 5759 5755 5755 5754 5752 5752 5750 5749 5749 5742 5741 5739 5739 5737 5736 5736 5735 5737 5737
5816 5812 5819 5825 5831 5831 5828 5831 5835 5827 5820 5823 5817 5811 5808 5803 5798 5793 5790 5788 5784 5782 5780 5780 5776 5772 5771 5768 5764 5762 5760 5756 5755 5753 5751 5750 5749 5748 5747 5745 5741 5740 5739 5740 5737 5738 5741 5741 5739
5813 5817 5820 5824 5831 5830 5829 5831 5830 5829 5829 5836 5832 5822 5811 5804 5799 5796 5792 5789 5785 5782 5779 5779 5775 5771 5768 5767 5764 5761 5759 5756 5755 5751 5751 5749 5749 5747 5747 5744 5744 5742 5742 5740 5740 5739 5739 5739 5737
5810 5816 5823 5827 5830 5831 5830 5829 5828 5829 5836 5837 5831 5820 5812 5807 5802 5800 5797 5791 5786 5780 5778 5777 5773 5769 5765 5762 5761 5761 5759 5757 5754 5751 5750 5749 5749 5747 5745 5744 5742 5743 5742 5740 5739 5739 5737 5737 5736
5816 5817 5821 5826 5828 5829 5824 5827 5826 5828 5835 5830 5823 5817 5814 5809 5805 5800 5794 5788 5784 5780 5777 5775 5770 5766 5763 5760 5758 5757 5757 5754 5754 5751 5749 5747 5748 5746 5744 5742 5741 5742 5741 5741 5739 5738 5737 5737 5736
5817 5810 5816 5823 5826 5827 5825 5816 5822 5831 5831 5823 5819 5815 5811 5808 5804 5799 5794 5788 5784 5780 5776 5772 5768 5765 5761 5759 5756 5755 5754 5752 5751 5749 5746 5745 5745 5744 5743 5743 5741 5740 5739 5737 5737 5736 5737 5736 5736
5810 5804 5801 5816 5822 5824 5815 5808 5825 5831 5826 5819 5816 5812 5807 5804 5802 5799 5794 5788 5785 5780 5774 5770 5768 5763 5759 5757 5754 5753 5751 5750 5749 5747 5745 5743 5743 5742 5741 5743 5742 5739 5738 5737 5737 5737 5737 5736 5736
5799 5796 5800 5806 5818 5819 5814 5809 5822 5829 5823 5816 5814 5810 5805 5800 5799 5797 5794 5789 5784 5779 5773 5767 5765 5761 5757 5754 5752 5750 5748 5747 5747 5746 5744 5742 5741 5740 5740 5741 5740 5738 5738 5738 5738 5737 5736 5735 5734
5792 5797 5797 5799 5810 5811 5808 5810 5819 5823 5820 5817 5814 5810 5804 5799 5797 5797 5793 5789 5783 5778 5772 5767 5762 5759 5755 5751 5749 5747 5746 5745 5745 5745 5743 5741 5740 5740 5740 5739 5738 5738 5738 5736 5736 5734 5733 5734 5733
5798 5794 5792 5798 5809 5805 5804 5807 5814 5818 5816 5814 5812 5808 5804 5800 5800 5797 5792 5788 5782 5777 5771 5767 5762 5758 5754 5750 5746 5745 5744 5744 5744 5744 5742 5741 5740 5739 5738 5740 5737 5737 5737 5735 5735 5734 5732 5733 5734
5789 5785 5789 5795 5804 5801 5800 5804 5814 5815 5813 5813 5810 5807 5804 5800 5798 5795 5790 5786 5781 5776 5771 5766 5761 5757 5754 5751 5748 5746 5745 5745 5745 5744 5742 5740 5739 5738 5739 5738 5737 5737 5736 5734 5734 5732 5733 5733 5734
5783 5784 5788 5788 5796 5801 5797 5797 5805 5811 5813 5812 5811 5810 5808 5803 5798 5793 5789 5785 5781 5775 5770 5766 5761 5757 5754 5752 5748 5745 5742 5742 5742 5741 5740 5739 5739 5738 5738 5738 5737 5737 5737 5736 5733 5733 5731 5730 5733
5776 5791 5789 5786 5783 5788 5791 5783 5798 5806 5805 5807 5808 5808 5807 5804 5800 5795 5789 5784 5781 5777 5772 5767 5762 5757 5753 5751 5748 5746 5742 5740 5742 5741 5740 5739 5738 5737 5737 5737 5736 5736 5737 5736 5734 5735 5733 5730 5730
5786 5793 5789 5786 5783 5783 5788 5783 5796 5803 5798 5803 5805 5805 5806 5804 5800 5795 5791 5785 5782 5777 5771 5766 5762 5757 5754 5751 5749 5746 5744 5743 5742 5740 5738 5737 5738 5737 5736 5736 5736 5735 5736 5735 5734 5734 5733 5733 5732
5789 5784 5782 5783 5783 5765 5781 5777 5784 5800 5797 5800 5802 5802 5801 5801 5798 5794 5790 5785 5780 5776 5771 5766 5760 5756 5753 5751 5749 5746 5743 5742 5740 5738 5736 5735 5737 5737 5736 5736 5735 5735 5735 5734 5733 5733 5732 5733 5733
5782 5770 5759 5756 5759 5766 5782 5775 5785 5799 5801 5799 5798 5798 5799 5799 5794 5789 5785 5781 5776 5773 5769 5765 5760 5755 5753 5750 5748 5746 5743 5741 5738 5737 5736 5735 5736 5736 5736 5737 5735 5735 5734 5734 5733 5732 5733 5732 5731
5777 5777 5762 5752 5757 5771 5771 5772 5791 5800 5801 5800 5799 5798 5796 5794 5792 5787 5783 5779 5775 5771 5768 5764 5759 5755 5752 5750 5748 5746 5743 5741 5739 5738 5737 5736 5737 5738 5737 5736 5734 5734 5734 5734 5733 5733 5732 5732 5730
5775 5776 5792 5779 5772 5766 5773 5780 5790 5796 5794 5794 5793 5792 5790 5789 5788 5785 5782 5779 5774 5770 5766 5763 5758 5755 5752 5750 5746 5744 5742 5740 5739 5738 5736 5736 5736 5737 5736 5735 5734 5734 5733 5733 5732 5733 5731 5731 5730
5790 5787 5778 5770 5752 5749 5763 5768 5778 5782 5785 5788 5788 5787 5786 5786 5784 5782 5779 5777 5773 5770 5765 5761 5757 5754 5752 5749 5747 5745 5742 5740 5739 5737 5735 5734 5735 5735 5734 5734 5733 5733 5733 5732 5731 5731 5730 5728 5728
5771 5774 5776 5775 5775 5757 5752 5769 5793 5788 5787 5786 5785 5785 5784 5783 5782 5778 5776 5774 5770 5766 5762 5758 5755 5752 5750 5747 5746 5743 5741 5739 5737 5735 5734 5733 5732 5731 5731 5731 5732 5731 5731 5730 5729 5730 5728 5726 5726
5783 5780 5775 5761 5759 5767 5765 5771 5791 5791 5791 5787 5783 5781 5780 5778 5777 5774 5771 5768 5765 5762 5759 5755 5752 5750 5748 5746 5743 5741 5739 5737 5735 5734 5733 5732 5730 5729 5729 5729 5729 5729 5728 5728 5727 5726 5725 5723 5722